When you browse on this site, cookies collect data to enhance your experience and personalize the content and advertising you see.
Visit our Privacy Policy to learn more. By continuing to use the site, you agree to this use of cookies and data.
  • In Österreich
  • Länderverzeichnis
  • Für 7 Tage
  • Wassertemperatur
  • Wetterkarte
  • News
  • Widgets
  • user-avatar
    Anmelden

    Stündliche Wetter Hajfong

    Heute, 23 Januar, Donnerstag

    Zeit Temperatur Niederschläge Wind Luftdruck Luftfeuchtigkeit
    00:00 +22°C° 0 mm 3 m/S 761 mmHg 88%
    01:00 +23°C° 0 mm 2 m/S 760 mmHg 88%
    02:00 +23°C° 0 mm 2 m/S 760 mmHg 88%
    03:00 +23°C° 0 mm 2 m/S 760 mmHg 88%
    04:00 +23°C° 0 mm 2 m/S 759 mmHg 89%
    05:00 +23°C° 0 mm 2 m/S 759 mmHg 88%
    06:00 +23°C° 0 mm 2 m/S 760 mmHg 87%
    07:00 +23°C° 0 mm 2 m/S 760 mmHg 86%
    08:00 +24°C° 0 mm 2 m/S 761 mmHg 82%
    09:00 +24°C° 0 mm 3 m/S 761 mmHg 79%
    10:00 +25°C° 0 mm 3 m/S 762 mmHg 75%
    11:00 +25°C° 0 mm 3 m/S 761 mmHg 74%
    12:00 +25°C° 0 mm 3 m/S 760 mmHg 74%
    13:00 +26°C° 0 mm 3 m/S 759 mmHg 73%
    14:00 +25°C° 0 mm 4 m/S 759 mmHg 74%
    15:00 +25°C° 0 mm 4 m/S 759 mmHg 76%
    16:00 +25°C° 0 mm 4 m/S 758 mmHg 77%
    17:00 +25°C° 0 mm 4 m/S 759 mmHg 79%
    18:00 +23°C° 0 mm 4 m/S 759 mmHg 81%
    19:00 +23°C° 0 mm 4 m/S 759 mmHg 84%
    20:00 +24°C° 0 mm 3 m/S 759 mmHg 84%
    21:00 +24°C° 0 mm 3 m/S 760 mmHg 85%
    22:00 +23°C° 0 mm 2 m/S 760 mmHg 86%
    23:00 +23°C° 0 mm 2 m/S 760 mmHg 87%

    Morgen, 24 Januar, Freitag

    Zeit Temperatur Niederschläge Wind Luftdruck Luftfeuchtigkeit
    00:00 +23°C° 0 mm 2 m/S 760 mmHg 87%
    01:00 +23°C° 0 mm 2 m/S 760 mmHg 87%
    02:00 +23°C° 0 mm 2 m/S 759 mmHg 87%
    03:00 +23°C° 0 mm 2 m/S 759 mmHg 87%
    04:00 +23°C° 0 mm 2 m/S 759 mmHg 87%
    05:00 +23°C° 0.1 mm 2 m/S 760 mmHg 87%
    06:00 +22°C° 0.1 mm 3 m/S 760 mmHg 87%
    07:00 +22°C° 0.1 mm 3 m/S 761 mmHg 87%
    08:00 +24°C° 0.1 mm 3 m/S 761 mmHg 86%
    09:00 +23°C° 0.1 mm 4 m/S 761 mmHg 84%
    10:00 +23°C° 0.1 mm 4 m/S 761 mmHg 82%
    11:00 +23°C° 0.6 mm 4 m/S 761 mmHg 82%
    12:00 +23°C° 0.6 mm 4 m/S 761 mmHg 82%
    13:00 +23°C° 0.6 mm 4 m/S 760 mmHg 83%
    14:00 +23°C° 0.3 mm 4 m/S 760 mmHg 82%
    15:00 +23°C° 0.3 mm 4 m/S 759 mmHg 80%
    16:00 +25°C° 0.3 mm 4 m/S 759 mmHg 79%
    17:00 +23°C° 0.3 mm 4 m/S 759 mmHg 81%
    18:00 +23°C° 0.3 mm 4 m/S 759 mmHg 83%
    19:00 +22°C° 0.3 mm 3 m/S 759 mmHg 84%
    20:00 +22°C° 0.7 mm 3 m/S 760 mmHg 85%
    21:00 +22°C° 0.7 mm 3 m/S 760 mmHg 86%
    22:00 +22°C° 0.7 mm 3 m/S 760 mmHg 86%
    23:00 +22°C° 0.8 mm 3 m/S 760 mmHg 87%

    übermorgen, 25 Januar, Samstag

    Zeit Temperatur Niederschläge Wind Luftdruck Luftfeuchtigkeit
    00:00 +21°C° 0.8 mm 3 m/S 759 mmHg 88%
    01:00 +21°C° 0.8 mm 3 m/S 759 mmHg 88%
    02:00 +21°C° 1.1 mm 3 m/S 759 mmHg 89%
    03:00 +21°C° 1.1 mm 4 m/S 759 mmHg 90%
    04:00 +21°C° 1.1 mm 4 m/S 758 mmHg 92%
    05:00 +21°C° 0.6 mm 4 m/S 759 mmHg 92%
    06:00 +21°C° 0.6 mm 4 m/S 759 mmHg 92%
    07:00 +21°C° 0.6 mm 4 m/S 759 mmHg 92%
    08:00 +22°C° 0.5 mm 4 m/S 760 mmHg 88%
    09:00 +23°C° 0.5 mm 4 m/S 760 mmHg 83%
    10:00 +23°C° 0.5 mm 4 m/S 760 mmHg 79%
    11:00 +25°C° 0.5 mm 4 m/S 760 mmHg 78%
    12:00 +25°C° 0.5 mm 4 m/S 759 mmHg 76%
    13:00 +25°C° 0.5 mm 4 m/S 758 mmHg 75%
    14:00 +25°C° 0.4 mm 4 m/S 757 mmHg 74%
    15:00 +25°C° 0.4 mm 4 m/S 757 mmHg 74%
    16:00 +25°C° 0.4 mm 4 m/S 756 mmHg 74%
    17:00 +24°C° 0.3 mm 3 m/S 757 mmHg 78%
    18:00 +22°C° 0.3 mm 3 m/S 757 mmHg 82%
    19:00 +22°C° 0.3 mm 3 m/S 758 mmHg 87%
    20:00 +23°C° 0.3 mm 2 m/S 758 mmHg 87%
    21:00 +21°C° 0.3 mm 2 m/S 759 mmHg 87%
    22:00 +21°C° 0.3 mm 2 m/S 759 mmHg 88%
    23:00 +21°C° 0.1 mm 2 m/S 759 mmHg 86%

    26 Januar, Sonntag

    Zeit Temperatur Niederschläge Wind Luftdruck Luftfeuchtigkeit
    00:00 +20°C° 0.1 mm 3 m/S 759 mmHg 84%
    01:00 +19°C° 0.1 mm 4 m/S 759 mmHg 83%
    02:00 +18°C° 0.3 mm 4 m/S 759 mmHg 82%
    03:00 +18°C° 0.3 mm 4 m/S 759 mmHg 82%
    04:00 +17°C° 0.3 mm 4 m/S 759 mmHg 81%
    05:00 +17°C° 0.3 mm 4 m/S 760 mmHg 82%
    06:00 +17°C° 0.3 mm 3 m/S 760 mmHg 82%
    07:00 +17°C° 0.3 mm 3 m/S 761 mmHg 82%
    08:00 +17°C° 0.1 mm 3 m/S 761 mmHg 79%
    09:00 +18°C° 0.1 mm 3 m/S 762 mmHg 76%
    10:00 +18°C° 0.1 mm 3 m/S 762 mmHg 73%
    11:00 +18°C° 0.1 mm 3 m/S 762 mmHg 73%
    12:00 +18°C° 0.1 mm 2 m/S 761 mmHg 73%
    13:00 +18°C° 0.1 mm 2 m/S 761 mmHg 73%
    14:00 +18°C° 0.1 mm 2 m/S 761 mmHg 73%
    15:00 +18°C° 0.1 mm 2 m/S 760 mmHg 73%
    16:00 +18°C° 0.1 mm 2 m/S 760 mmHg 73%
    17:00 +18°C° 0.1 mm 1 m/S 760 mmHg 74%
    18:00 +18°C° 0.1 mm 1 m/S 761 mmHg 76%
    19:00 +18°C° 0.1 mm 1 m/S 761 mmHg 78%
    20:00 +18°C° 0.1 mm 1 m/S 761 mmHg 79%
    21:00 +18°C° 0.1 mm 1 m/S 761 mmHg 80%
    22:00 +18°C° 0.1 mm 1 m/S 762 mmHg 81%
    23:00 +18°C° 0 mm 1 m/S 761 mmHg 81%

    27 Januar, Montag

    Zeit Temperatur Niederschläge Wind Luftdruck Luftfeuchtigkeit
    00:00 +18°C° 0 mm 1 m/S 761 mmHg 82%
    01:00 +18°C° 0 mm 1 m/S 761 mmHg 82%
    02:00 +18°C° 0 mm 1 m/S 761 mmHg 82%
    03:00 +18°C° 0 mm 1 m/S 760 mmHg 82%
    04:00 +18°C° 0 mm 1 m/S 760 mmHg 82%
    05:00 +18°C° 0.2 mm 1 m/S 761 mmHg 84%
    06:00 +16°C° 0.2 mm 1 m/S 761 mmHg 85%
    07:00 +16°C° 0.2 mm 1 m/S 761 mmHg 87%
    08:00 +16°C° 0 mm 2 m/S 761 mmHg 84%
    09:00 +17°C° 0 mm 2 m/S 762 mmHg 80%
    10:00 +17°C° 0 mm 2 m/S 762 mmHg 77%
    11:00 +18°C° 0 mm 2 m/S 761 mmHg 73%
    12:00 +19°C° 0 mm 2 m/S 761 mmHg 68%
    13:00 +20°C° 0 mm 2 m/S 760 mmHg 64%
    14:00 +20°C° 0 mm 2 m/S 760 mmHg 66%
    15:00 +19°C° 0 mm 3 m/S 760 mmHg 69%
    16:00 +19°C° 0 mm 3 m/S 760 mmHg 71%
    17:00 +18°C° 0 mm 3 m/S 760 mmHg 73%
    18:00 +18°C° 0 mm 3 m/S 760 mmHg 75%
    19:00 +18°C° 0 mm 4 m/S 760 mmHg 76%
    20:00 +18°C° 0 mm 3 m/S 760 mmHg 76%
    21:00 +17°C° 0 mm 3 m/S 761 mmHg 77%
    22:00 +17°C° 0 mm 3 m/S 761 mmHg 77%
    23:00 +17°C° 0 mm 2 m/S 761 mmHg 77%

    28 Januar, Dienstag

    Zeit Temperatur Niederschläge Wind Luftdruck Luftfeuchtigkeit
    00:00 +17°C° 0 mm 2 m/S 761 mmHg 77%
    01:00 +17°C° 0 mm 2 m/S 761 mmHg 78%
    02:00 +17°C° 0 mm 2 m/S 761 mmHg 78%
    03:00 +16°C° 0 mm 2 m/S 761 mmHg 79%
    04:00 +16°C° 0 mm 2 m/S 761 mmHg 80%
    05:00 +16°C° 0 mm 2 m/S 761 mmHg 80%
    06:00 +16°C° 0 mm 3 m/S 761 mmHg 80%
    07:00 +16°C° 0 mm 3 m/S 762 mmHg 80%
    08:00 +17°C° 0 mm 2 m/S 762 mmHg 76%
    09:00 +18°C° 0 mm 2 m/S 762 mmHg 71%
    10:00 +20°C° 0 mm 1 m/S 763 mmHg 67%
    11:00 +20°C° 0 mm 1 m/S 762 mmHg 67%
    12:00 +20°C° 0 mm 1 m/S 762 mmHg 67%
    13:00 +20°C° 0 mm 1 m/S 762 mmHg 66%
    14:00 +19°C° 0 mm 2 m/S 761 mmHg 68%
    15:00 +19°C° 0 mm 2 m/S 761 mmHg 69%
    16:00 +19°C° 0 mm 2 m/S 761 mmHg 70%
    17:00 +19°C° 0 mm 3 m/S 761 mmHg 73%
    18:00 +19°C° 0 mm 3 m/S 761 mmHg 76%
    19:00 +18°C° 0 mm 4 m/S 762 mmHg 78%
    20:00 +18°C° 0 mm 3 m/S 762 mmHg 78%
    21:00 +18°C° 0 mm 3 m/S 763 mmHg 78%
    22:00 +18°C° 0 mm 2 m/S 763 mmHg 78%
    23:00 +18°C° 0 mm 2 m/S 763 mmHg 78%
    Mehr zeigen